Overview Statistics Trail Chart Weather Telemetry Raw packets
 

This is the latest recevied weather packets stored in our database for station/object VK2KGV-15. If no packets are shown the sender has not sent any weather packets the latest 10 day(s).

<< 3 4 5 6 7 8 9 >>
Time Temp. Humidity Pressure Rain* Wind** Luminosity Snow
1788419562 25° C 34% 1016 hPa 1.52 mm - - -
1788418355 25.56° C 32% 1015.7 hPa 1.52 mm - - -
1788417149 26.11° C 31% 1015.5 hPa 1.52 mm - - -
1788414737 27.22° C 29% 1015.2 hPa 0.51 mm - - -
1788411118 28.33° C 27% 1014.8 hPa 0.51 mm - - -
1788408708 28.33° C 27% 1015 hPa 0 mm - - -
1788401468 27.22° C 31% 1016.5 hPa 0 mm - - -
1788400865 27.22° C 31% 1016.6 hPa 0 mm - - -
1788399056 26.11° C 34% 1017.2 hPa 0 mm - - -
1788397247 25° C 36% 1017.8 hPa 0 mm - - -
1788396643 24.44° C 37% 1018.1 hPa 0 mm - - -
1788395437 23.33° C 40% 1018.5 hPa 0 mm - - -
1788394231 22.78° C 41% 1018.8 hPa 0 mm - - -
1788393025 21.67° C 43% 1019.1 hPa 0 mm - - -
1788388803 19.44° C 51% 1019.6 hPa 0 mm - - -
1788388200 18.89° C 52% 1019.7 hPa 0 mm - - -
1788384581 15.56° C 64% 1019.9 hPa 0 mm - - -
1788383375 14.44° C 69% 1019.7 hPa 0 mm - - -
1788382168 13.33° C 76% 1019.9 hPa 0 mm - - -
1788381566 12.78° C 78% 1019.9 hPa 0 mm - - -
1788380962 12.22° C 80% 1019.9 hPa 0 mm - - -
1788378550 9.44° C 89% 1019.9 hPa 0 mm - - -
1788374931 7.78° C 91% 1019.8 hPa 0 mm - - -
1788373725 7.22° C 89% 1019.5 hPa 0 mm - - -
1788373122 7.78° C 89% 1019.3 hPa 0 mm - - -

* Rain since midnight (hover to see other rain measurements)
** Current wind speed in m/s (hover to see current wind gust speed)